Regional Weather Roundup
Issued by NWS Midland/Odessa, TX

Skip options and go directly to product.
Home | Oldest Version | Previous Version | Current Version | All | Graphics & Text | Save Text | Print | Product List | Glossary On

Skip product version selection by date and time.   
338
ASUS44 KMAF 232302
RWRMAF
MIDLAND AREA WEATHER ROUNDUP
NATIONAL WEATHER SERVICE MIDLAND TX
600 PM CDT WED APR 23 2014

...IN SOUTHWEST TEXAS AND SOUTHEAST NEW MEXICO...

CITY           SKY/WX    TMP DP  RH WIND       PRES   REMARKS
ALPINE         CLOUDY    86  18   8 SW20G25   29.87S
ANDREWS        FAIR      86  31  13 SW17      29.70F
ARTESIA        SUNNY     86  19   8 SW26G35   29.68F
BIG SPRING     PTSUNNY   94  44  17 S16G23    29.68F
CARLSBAD       PTSUNNY   89  16   7 SW25      29.68F
DRYDEN           N/A     92  54  27 SE21G28   29.67F
FORT STOCKTON  CLOUDY    91  22   8 SW12      29.70F
GUAD PASS      MOSUNNY   78  17  10 SW33G48   29.83F
HOBBS          SUNNY     86  18   8 SW25G31   29.71F
MARFA          PTSUNNY   84  25  11 S7G17     29.85F
MIDLAND AIRPK  PTSUNNY   90  34  13 SW12G23   29.69F
MIDLAND INTL   CLOUDY    90  37  15 W14       29.68F
ODESSA           N/A    N/A N/A N/A MISG      29.68F
PECOS          CLOUDY    88  31  13 W20       29.67F
PRESIDIO       FAIR      92  18   6 S10G23    29.70F
SEMINOLE       PTSUNNY   86  27  11 SW18      29.71F
SNYDER         PTSUNNY   90  44  20 S20G29    29.65F
WINK           PTSUNNY   90  30  11 SW17      29.66F
$$
...OTHER STATIONS IN TEXAS...

CITY           SKY/WX    TMP DP  RH WIND       PRES   REMARKS
ABILENE        MOSUNNY   90  55  30 S23G31    29.64F
AMARILLO       MOSUNNY   87  15   7 SW32G47   29.59F
AUSTIN         MOSUNNY   85  63  47 S17G24    29.76F
BROWNSVILLE    SUNNY     80  66  62 SE17      29.81S
CORPUS CHRISTI MOSUNNY   81  64  56 SE24G32   29.80F
DALLAS FTW     PTSUNNY   85  56  37 S17G28    29.74F
DEL RIO        CLOUDY    88  58  36 E5        29.67F
EL PASO        MOSUNNY   85  16   7 W21G37    29.75F
HOUSTON INT    MOSUNNY   79  66  64 SE17      29.84F
LUBBOCK        CLOUDY    87  29  12 SW23G37   29.64F
SAN ANGELO     PTSUNNY   92  51  24 S18G29    29.67F
SAN ANTONIO    MOSUNNY   87  60  40 SE18      29.76S
WACO           MOSUNNY   83  62  49 SE18G24   29.77F
WICHITA FALLS  NOT AVBL
$$
...OTHER LOCATIONS IN NEW MEXICO...

CITY           SKY/WX    TMP DP  RH WIND       PRES   REMARKS
ALAMAGORDO     SUNNY     82  16   8 W23G33    29.76F
ALBUQUERQUE    CLOUDY    72  14  11 W26G46    29.75F
CANNON AFB     SUNNY     84   7   5 SW28G35   29.65S
CLOVIS         SUNNY     84  23  10 SW25G37   29.66F
HOLLOMAN AFB   SUNNY     83  13   7 SW20G29   29.74F
ROSWELL        SUNNY     89  13   6 SW28G41   29.62F
RUIDOSO        SUNNY     68  12  11 SW26G38   29.86F
SANTA FE       CLOUDY    64  15  15 W21G32    29.78S
TRUTH OR CONSE SUNNY     79  13   8 W26G37    29.76S
TUCUMCARI      SUNNY     87  18   8 SW29G35   29.58F
$$

USA.gov is the U.S. government's official web portal to all federal, state and local government web resources and services.